Flag for U.S.A. Weather past 2 weeks in Bakersfield, California, U.S.A.

Now
68 °F

Clear.


Feels Like: 68 °F
Forecast: 60 / 85 °F
Wind: 8 mph from Northwest

Location: Meadows Field

Current Time: Sep 5, 2015 at 1:37:23 AM

Latest Report: Sep 5, 2015 at 12:54 AM


Visibility: 10 mi

Pressure: 29.84 "Hg

Humidity: 39%

Dew point: 42 °F

Location of BakersfieldLocation

Historic Weather in Bakersfield — Graph

°F

Bakersfield temperature yesterday

Maximum temperature yesterday: 86 °F (at 3:54 PM)
Minimum temperature yesterday: 62 °F (at 5:54 AM)
Average temperature yesterday: 75 °F

Past Weeks' High & Low Weather Summary

 TemperatureHumidityPressure
High103 °F (Aug 28, 3:54 PM)61% (Aug 24, 6:54 AM)30.03 "Hg (Aug 24, 6:54 AM)
Low62 °F (Sep 4, 5:54 AM)13% (Aug 26, 2:54 PM)29.72 "Hg (Sep 3, 6:54 PM)
Average82 °F32%29.86 "Hg
* Reported Aug 20 11:54 PM — Sep 4 11:54 PM, Bakersfield, Weather by CustomWeather, © 2015

Note: Actual official high and low records may vary slightly from our data, if they occured in-between our weather recording intervals... More about our weather records

Advertising

Bakersfield weather history for previous 24 hours

 ConditionsComfort  
Time TempWeatherWind HumidityBarometerVisibility
11:54 PM
Fri, Sep 4
69 °FClear.6 mph41%29.82 "Hg10 mi
10:54 PM72 °FClear.7 mph35%29.81 "Hg10 mi
9:54 PM74 °FClear.9 mph35%29.80 "Hg10 mi
8:54 PM78 °FClear.10 mph31%29.78 "Hg10 mi
7:54 PM81 °FSunny.3 mph29%29.75 "Hg10 mi
6:54 PM84 °FSunny.9 mph26%29.75 "Hg10 mi
5:54 PM86 °FSunny.10 mph27%29.75 "Hg10 mi
4:54 PM86 °FSunny.13 mph27%29.74 "Hg10 mi
3:54 PM86 °FSunny.13 mph27%29.75 "Hg10 mi
2:54 PM85 °FSunny.9 mph27%29.77 "Hg10 mi
1:54 PM84 °FSunny.8 mph29%29.79 "Hg10 mi
12:54 PM82 °FSunny.10 mph28%29.81 "Hg10 mi
11:54 AM80 °FSunny.12 mph27%29.83 "Hg10 mi
10:54 AM78 °FSunny.8 mph29%29.84 "Hg10 mi
9:54 AM75 °FSunny.6 mph33%29.83 "Hg10 mi
8:54 AM71 °FSunny.No wind39%29.83 "Hg10 mi
7:54 AM68 °FSunny.No wind49%29.83 "Hg10 mi
6:54 AM65 °FClear.No wind51%29.82 "Hg10 mi
5:54 AM62 °FClear.3 mph54%29.81 "Hg10 mi
4:54 AM66 °FClear.No wind50%29.80 "Hg10 mi
3:54 AM66 °FClear.No wind50%29.80 "Hg10 mi
2:54 AM66 °FClear.8 mph52%29.78 "Hg10 mi
1:54 AM69 °FClear.5 mph45%29.79 "Hg10 mi
Weather by CustomWeather, © 2015

See weather overviewHow to use our weather pages